"read_dt","SO2 (ppb)","flags","PMT voltage (V)","lamp voltage (V)","lamp intensity (Hz)","internal temp (C)","react chamber temp (C)","sample flow (l/min)","pres (mmHg)","SO2 bkg (ppb)","SO2 coefficient"
2016-05-22 00:00:00,1960E-3,5C000400,-0724,0834,12163,030.6,045.5,0.250,749.9,01.17,0.508
2016-05-22 00:01:00,2053E-3,5C000400,-0724,0834,11969,030.6,045.5,0.250,749.9,01.17,0.508
2016-05-22 00:02:00,2060E-3,5C000400,-0724,0834,12187,030.6,045.5,0.250,749.8,01.17,0.508
2016-05-22 00:03:00,2075E-3,5C000400,-0724,0833,12128,030.6,045.5,0.250,749.9,01.17,0.508
2016-05-22 00:04:00,2017E-3,5C000400,-0724,0834,12166,030.6,045.5,0.250,749.9,01.17,0.508
2016-05-22 00:05:00,2106E-3,5C000400,-0724,0835,12132,030.6,045.5,0.250,749.8,01.17,0.508
2016-05-22 00:06:00,1999E-3,5C000400,-0724,0834,12232,030.6,045.5,0.250,749.9,01.17,0.508
2016-05-22 00:07:00,2176E-3,5C000400,-0724,0834,12064,030.6,045.5,0.250,749.8,01.17,0.508
2016-05-22 00:08:00,2004E-3,5C000400,-0724,0834,12100,030.7,045.5,0.250,749.8,01.17,0.508
2016-05-22 00:09:00,2176E-3,5C000400,-0724,0833,12144,030.7,045.5,0.250,749.8,01.17,0.508
2016-05-22 00:10:00,2039E-3,5C000400,-0724,0835,12271,030.7,045.5,0.250,749.8,01.17,0.508
2016-05-22 00:11:00,2071E-3,5C000400,-0724,0834,12129,030.7,045.5,0.250,749.8,01.17,0.508
2016-05-22 00:12:00,2124E-3,5C000400,-0724,0834,12055,030.7,045.5,0.250,749.8,01.17,0.508
2016-05-22 00:13:00,1945E-3,5C000400,-0724,0833,12077,030.7,045.5,0.250,749.8,01.17,0.508
2016-05-22 00:14:00,1964E-3,5C000400,-0724,0834,12203,030.7,045.5,0.250,749.8,01.17,0.508
2016-05-22 00:15:00,1998E-3,5C000400,-0724,0834,12156,030.7,045.5,0.250,749.8,01.17,0.508
2016-05-22 00:16:00,2082E-3,5C000400,-0724,0834,12151,030.7,045.5,0.250,749.8,01.17,0.508
2016-05-22 00:17:00,2023E-3,5C000400,-0724,0834,12164,030.7,045.5,0.250,749.8,01.17,0.508
2016-05-22 00:18:00,1987E-3,5C000400,-0724,0835,12146,030.8,045.5,0.250,749.8,01.17,0.508
2016-05-22 00:19:00,2060E-3,5C000400,-0724,0834,12084,030.8,045.5,0.250,749.8,01.17,0.508
2016-05-22 00:20:00,2057E-3,5C000400,-0724,0834,12042,030.8,045.5,0.250,749.8,01.17,0.508
2016-05-22 00:21:00,2062E-3,5C000400,-0724,0834,12239,030.8,045.5,0.250,749.8,01.17,0.508
2016-05-22 00:22:00,2103E-3,5C000400,-0724,0834,12278,030.8,045.5,0.250,749.8,01.17,0.508
2016-05-22 00:23:00,2054E-3,5C000400,-0724,0834,12085,030.8,045.5,0.250,749.8,01.17,0.508
2016-05-22 00:24:00,2073E-3,5C000400,-0724,0834,12113,030.8,045.5,0.250,749.8,01.17,0.508
2016-05-22 00:25:00,2016E-3,5C000400,-0724,0834,12185,030.8,045.5,0.250,749.8,01.17,0.508
2016-05-22 00:26:00,2070E-3,5C000400,-0724,0834,12171,030.8,045.5,0.250,749.8,01.17,0.508
2016-05-22 00:27:00,1951E-3,5C000400,-0724,0834,12178,030.8,045.5,0.250,749.8,01.17,0.508
2016-05-22 00:28:00,1916E-3,5C000400,-0724,0833,11979,030.8,045.5,0.250,749.8,01.17,0.508
2016-05-22 00:29:00,2098E-3,5C000400,-0724,0834,12068,030.8,045.5,0.250,749.8,01.17,0.508
2016-05-22 00:30:00,2148E-3,5C000400,-0724,0834,12107,030.8,045.5,0.250,749.8,01.17,0.508
2016-05-22 00:31:00,2112E-3,5C000400,-0724,0834,12093,030.8,045.5,0.250,749.8,01.17,0.508
2016-05-22 00:32:00,2021E-3,5C000400,-0724,0834,12160,030.8,045.5,0.249,749.8,01.17,0.508
2016-05-22 00:33:00,2036E-3,5C000400,-0724,0833,12044,030.8,045.5,0.250,749.8,01.17,0.508
2016-05-22 00:34:00,2010E-3,5C000400,-0724,0833,12186,030.8,045.5,0.250,749.8,01.17,0.508
2016-05-22 00:35:00,1905E-3,5C000400,-0724,0834,12146,030.9,045.5,0.249,749.8,01.17,0.508
2016-05-22 00:36:00,2035E-3,5C000400,-0724,0834,12288,030.9,045.5,0.250,749.8,01.17,0.508
2016-05-22 00:37:00,2171E-3,5C000400,-0724,0834,12210,030.9,045.5,0.250,749.8,01.17,0.508
2016-05-22 00:38:00,2125E-3,5C000400,-0724,0833,12165,030.9,045.5,0.249,749.8,01.17,0.508
2016-05-22 00:39:00,1958E-3,5C000400,-0724,0833,12026,030.9,045.5,0.250,749.8,01.17,0.508
2016-05-22 00:40:00,2033E-3,5C000400,-0724,0834,12147,030.9,045.5,0.250,749.8,01.17,0.508
2016-05-22 00:41:00,2089E-3,5C000400,-0724,0834,12079,030.9,045.5,0.249,749.8,01.17,0.508
2016-05-22 00:42:00,2081E-3,5C000400,-0724,0834,12163,030.9,045.5,0.250,749.8,01.17,0.508
2016-05-22 00:43:00,2099E-3,5C000400,-0724,0834,12164,030.9,045.5,0.250,749.8,01.17,0.508
2016-05-22 00:44:00,2105E-3,5C000400,-0724,0834,12227,030.9,045.5,0.250,749.8,01.17,0.508
2016-05-22 00:45:00,2078E-3,5C000400,-0724,0834,12186,030.9,045.5,0.250,749.8,01.17,0.508
2016-05-22 00:46:00,2093E-3,5C000400,-0724,0833,12188,030.9,045.5,0.249,749.8,01.17,0.508
2016-05-22 00:47:00,2120E-3,5C000400,-0724,0833,12052,031.0,045.5,0.250,749.8,01.17,0.508
2016-05-22 00:48:00,2081E-3,5C000400,-0724,0834,12129,030.9,045.5,0.250,749.8,01.17,0.508
2016-05-22 00:49:00,2038E-3,5C000400,-0724,0834,12124,031.0,045.5,0.249,749.8,01.17,0.508
2016-05-22 00:50:00,1953E-3,5C000400,-0724,0835,12182,031.0,045.5,0.250,749.8,01.17,0.508
2016-05-22 00:51:00,2069E-3,5C000400,-0724,0834,12111,031.0,045.5,0.250,749.8,01.17,0.508
2016-05-22 00:52:00,2089E-3,5C000400,-0724,0834,12155,031.0,045.5,0.249,749.8,01.17,0.508
2016-05-22 00:53:00,1933E-3,5C000400,-0724,0834,12165,031.0,045.5,0.250,749.8,01.17,0.508
2016-05-22 00:54:00,2038E-3,5C000400,-0724,0833,12149,031.0,045.5,0.249,749.8,01.17,0.508
2016-05-22 00:55:00,2135E-3,5C000400,-0724,0834,12265,031.0,045.5,0.249,749.8,01.17,0.508
2016-05-22 00:56:00,2034E-3,5C000400,-0724,0834,12123,031.0,045.5,0.250,749.8,01.17,0.508
2016-05-22 00:57:00,2131E-3,5C000400,-0724,0833,12210,031.0,045.5,0.249,749.8,01.17,0.508
2016-05-22 00:58:00,2091E-3,5C000400,-0724,0834,12145,031.0,045.5,0.249,749.8,01.17,0.508
2016-05-22 00:59:00,2109E-3,5C000400,-0724,0834,12117,031.0,045.5,0.249,749.7,01.17,0.508
2016-05-22 01:00:00,1988E-3,5C000400,-0724,0833,12218,031.0,045.5,0.249,749.7,01.17,0.508
2016-05-22 01:01:00,2117E-3,5C000400,-0724,0834,12212,031.0,045.5,0.250,749.7,01.17,0.508
2016-05-22 01:02:00,1962E-3,5C000400,-0724,0833,12146,031.1,045.5,0.249,749.7,01.17,0.508
2016-05-22 01:03:00,2197E-3,5C000400,-0724,0835,12249,031.1,045.5,0.249,749.7,01.17,0.508
2016-05-22 01:04:00,2059E-3,5C000400,-0724,0834,11959,031.1,045.5,0.250,749.7,01.17,0.508
2016-05-22 01:05:00,2027E-3,5C000400,-0724,0834,12242,031.1,045.5,0.249,749.7,01.17,0.508
2016-05-22 01:06:00,1960E-3,5C000400,-0724,0834,12154,031.1,045.5,0.249,749.7,01.17,0.508
2016-05-22 01:07:00,2042E-3,5C000400,-0724,0835,12210,031.1,045.5,0.249,749.7,01.17,0.508
2016-05-22 01:08:00,1952E-3,5C000400,-0724,0834,12011,031.1,045.5,0.249,749.6,01.17,0.508
2016-05-22 01:09:00,1911E-3,5C000400,-0724,0833,12011,031.1,045.5,0.250,749.6,01.17,0.508
2016-05-22 01:10:00,2078E-3,5C000400,-0724,0834,12133,031.1,045.5,0.250,749.6,01.17,0.508
2016-05-22 01:11:00,2148E-3,5C000400,-0724,0834,12103,031.1,045.5,0.249,749.6,01.17,0.508
2016-05-22 01:12:00,2080E-3,5C000400,-0724,0834,12132,031.1,045.5,0.249,749.6,01.17,0.508
2016-05-22 01:13:00,2117E-3,5C000400,-0724,0835,12143,031.1,045.5,0.249,749.7,01.17,0.508
2016-05-22 01:14:00,2173E-3,5C000400,-0724,0834,12176,031.1,045.5,0.249,749.7,01.17,0.508
2016-05-22 01:15:00,1949E-3,5C000400,-0724,0834,12192,031.1,045.5,0.249,749.7,01.17,0.508
2016-05-22 01:16:00,1988E-3,5C000400,-0724,0834,12007,031.1,045.5,0.249,749.7,01.17,0.508
2016-05-22 01:17:00,2132E-3,5C000400,-0724,0833,12158,031.1,045.5,0.249,749.6,01.17,0.508
2016-05-22 01:18:00,1933E-3,5C000400,-0724,0834,12083,031.2,045.5,0.249,749.6,01.17,0.508
2016-05-22 01:19:00,2060E-3,5C000400,-0724,0834,12222,031.2,045.5,0.249,749.6,01.17,0.508
2016-05-22 01:20:00,2015E-3,5C000400,-0724,0834,12109,031.2,045.5,0.249,749.6,01.17,0.508
2016-05-22 01:21:00,2193E-3,5C000400,-0724,0834,12043,031.2,045.5,0.249,749.6,01.17,0.508
2016-05-22 01:22:00,2132E-3,5C000400,-0724,0834,12177,031.2,045.5,0.249,749.6,01.17,0.508
2016-05-22 01:23:00,2100E-3,5C000400,-0724,0834,12108,031.2,045.5,0.249,749.6,01.17,0.508
2016-05-22 01:24:00,2041E-3,5C000400,-0724,0834,12162,031.2,045.5,0.249,749.6,01.17,0.508
2016-05-22 01:25:00,2202E-3,5C000400,-0724,0834,12199,031.2,045.5,0.249,749.6,01.17,0.508
2016-05-22 01:26:00,2080E-3,5C000400,-0724,0834,12140,031.2,045.5,0.249,749.6,01.17,0.508
2016-05-22 01:27:00,2069E-3,5C000400,-0724,0834,12153,031.2,045.5,0.249,749.6,01.17,0.508
2016-05-22 01:28:00,2087E-3,5C000400,-0724,0834,11997,031.3,045.5,0.249,749.6,01.17,0.508
2016-05-22 01:29:00,2040E-3,5C000400,-0724,0834,12217,031.2,045.5,0.249,749.6,01.17,0.508
2016-05-22 01:30:00,1897E-3,5C000400,-0724,0834,11996,031.2,045.5,0.249,749.6,01.17,0.508
2016-05-22 01:31:00,1983E-3,5C000400,-0724,0834,12196,031.2,045.5,0.249,749.6,01.17,0.508
2016-05-22 01:32:00,2097E-3,5C000400,-0724,0835,12022,031.3,045.5,0.249,749.6,01.17,0.508
2016-05-22 01:33:00,2158E-3,5C000400,-0724,0834,12001,031.3,045.5,0.249,749.6,01.17,0.508
2016-05-22 01:34:00,2017E-3,5C000400,-0724,0834,12159,031.3,045.5,0.249,749.6,01.17,0.508
2016-05-22 01:35:00,2065E-3,5C000400,-0724,0834,12135,031.3,045.5,0.249,749.6,01.17,0.508
2016-05-22 01:36:00,2030E-3,5C000400,-0724,0834,12119,031.3,045.5,0.249,749.6,01.17,0.508
2016-05-22 01:37:00,2054E-3,5C000400,-0724,0833,12101,031.3,045.6,0.249,749.6,01.17,0.508
2016-05-22 01:38:00,2085E-3,5C000400,-0724,0834,12120,031.3,045.5,0.249,749.6,01.17,0.508
2016-05-22 01:39:00,2210E-3,5C000400,-0724,0834,12193,031.3,045.5,0.249,749.5,01.17,0.508
2016-05-22 01:40:00,2076E-3,5C000400,-0724,0835,12208,031.3,045.5,0.249,749.6,01.17,0.508
2016-05-22 01:41:00,2029E-3,5C000400,-0724,0834,12293,031.3,045.5,0.249,749.5,01.17,0.508
2016-05-22 01:42:00,2052E-3,5C000400,-0724,0834,12254,031.4,045.5,0.248,749.5,01.17,0.508
2016-05-22 01:43:00,2120E-3,5C000400,-0724,0834,12260,031.3,045.5,0.249,749.5,01.17,0.508
2016-05-22 01:44:00,1910E-3,5C000400,-0724,0834,12138,031.3,045.5,0.249,749.5,01.17,0.508
2016-05-22 01:45:00,2120E-3,5C000400,-0724,0834,12102,031.3,045.5,0.249,749.5,01.17,0.508
2016-05-22 01:46:00,1965E-3,5C000400,-0724,0834,12117,031.4,045.5,0.249,749.5,01.17,0.508
2016-05-22 01:47:00,2098E-3,5C000400,-0724,0834,12160,031.4,045.5,0.248,749.5,01.17,0.508
2016-05-22 01:48:00,2094E-3,5C000400,-0724,0834,12058,031.4,045.5,0.249,749.5,01.17,0.508
2016-05-22 01:49:00,2023E-3,5C000400,-0724,0834,12078,031.4,045.5,0.248,749.5,01.17,0.508
2016-05-22 01:50:00,2078E-3,5C000400,-0724,0835,12225,031.4,045.5,0.249,749.4,01.17,0.508
2016-05-22 01:51:00,2090E-3,5C000400,-0724,0834,12172,031.4,045.5,0.249,749.4,01.17,0.508
2016-05-22 01:52:00,2101E-3,5C000400,-0724,0834,12108,031.5,045.5,0.249,749.4,01.17,0.508
2016-05-22 01:53:00,2045E-3,5C000400,-0724,0834,12110,031.5,045.5,0.249,749.4,01.17,0.508
2016-05-22 01:54:00,2125E-3,5C000400,-0724,0834,12174,031.4,045.5,0.249,749.4,01.17,0.508
2016-05-22 01:55:00,2115E-3,5C000400,-0724,0835,12101,031.4,045.5,0.249,749.4,01.17,0.508
2016-05-22 01:56:00,2154E-3,5C000400,-0724,0834,12039,031.4,045.5,0.248,749.4,01.17,0.508
2016-05-22 01:57:00,2131E-3,5C000400,-0724,0834,12226,031.4,045.5,0.249,749.4,01.17,0.508
2016-05-22 01:58:00,2008E-3,5C000400,-0724,0833,12168,031.4,045.5,0.248,749.4,01.17,0.508
2016-05-22 01:59:00,2067E-3,5C000400,-0724,0834,12221,031.5,045.5,0.248,749.4,01.17,0.508
2016-05-22 02:00:00,2100E-3,5C000400,-0724,0835,12187,031.5,045.5,0.248,749.4,01.17,0.508
2016-05-22 02:01:00,2126E-3,5C000400,-0724,0834,12120,031.5,045.5,0.249,749.4,01.17,0.508
2016-05-22 02:02:00,2073E-3,5C000400,-0724,0834,11894,031.5,045.5,0.248,749.4,01.17,0.508
2016-05-22 02:03:00,2091E-3,5C000400,-0724,0834,12115,031.5,045.5,0.249,749.4,01.17,0.508
2016-05-22 02:04:00,2073E-3,5C000400,-0724,0834,12173,031.5,045.5,0.248,749.4,01.17,0.508
2016-05-22 02:05:00,1913E-3,5C000400,-0724,0834,12126,031.6,045.5,0.249,749.4,01.17,0.508
2016-05-22 02:06:00,2114E-3,5C000400,-0724,0834,12189,031.6,045.5,0.248,749.4,01.17,0.508
2016-05-22 02:07:00,2116E-3,5C000400,-0724,0833,12270,031.6,045.5,0.248,749.4,01.17,0.508
2016-05-22 02:08:00,1960E-3,5C000400,-0724,0834,12185,031.6,045.5,0.249,749.3,01.17,0.508
2016-05-22 02:09:00,2133E-3,5C000400,-0724,0834,12117,031.6,045.5,0.248,749.3,01.17,0.508
2016-05-22 02:10:00,2055E-3,5C000400,-0724,0833,12216,031.6,045.5,0.249,749.3,01.17,0.508
2016-05-22 02:11:00,2104E-3,5C000400,-0724,0834,12122,031.6,045.5,0.248,749.3,01.17,0.508
2016-05-22 02:12:00,1987E-3,5C000400,-0724,0833,12134,031.6,045.5,0.248,749.3,01.17,0.508
2016-05-22 02:13:00,2162E-3,5C000400,-0724,0834,12054,031.6,045.5,0.248,749.3,01.17,0.508
2016-05-22 02:14:00,2074E-3,5C000400,-0724,0834,12104,031.6,045.6,0.248,749.3,01.17,0.508
2016-05-22 02:15:00,2066E-3,5C000400,-0724,0834,12090,031.6,045.5,0.248,749.3,01.17,0.508
2016-05-22 02:16:00,2240E-3,5C000400,-0724,0834,12147,031.6,045.5,0.248,749.3,01.17,0.508
2016-05-22 02:17:00,2140E-3,5C000400,-0724,0834,12249,031.6,045.5,0.248,749.3,01.17,0.508
2016-05-22 02:18:00,2039E-3,5C000400,-0724,0834,12113,031.6,045.5,0.248,749.3,01.17,0.508
2016-05-22 02:19:00,1939E-3,5C000400,-0724,0834,12089,031.7,045.6,0.248,749.3,01.17,0.508
2016-05-22 02:20:00,2102E-3,5C000400,-0724,0834,12111,031.7,045.6,0.248,749.3,01.17,0.508
2016-05-22 02:21:00,2071E-3,5C000400,-0724,0834,12200,031.7,045.6,0.248,749.3,01.17,0.508
2016-05-22 02:22:00,2065E-3,5C000400,-0724,0834,12115,031.7,045.5,0.248,749.3,01.17,0.508
2016-05-22 02:23:00,2050E-3,5C000400,-0724,0835,12226,031.7,045.6,0.248,749.3,01.17,0.508
2016-05-22 02:24:00,2110E-3,5C000400,-0724,0835,12098,031.7,045.6,0.248,749.3,01.17,0.508
2016-05-22 02:25:00,2037E-3,5C000400,-0724,0834,12116,031.8,045.6,0.247,749.3,01.17,0.508
2016-05-22 02:26:00,1972E-3,5C000400,-0724,0833,12090,031.8,045.5,0.248,749.3,01.17,0.508
2016-05-22 02:27:00,2157E-3,5C000400,-0724,0834,12162,031.9,045.6,0.247,749.3,01.17,0.508
2016-05-22 02:28:00,2041E-3,5C000400,-0724,0835,12206,031.9,045.6,0.248,749.2,01.17,0.508
2016-05-22 02:29:00,2006E-3,5C000400,-0724,0834,12164,031.9,045.6,0.247,749.2,01.17,0.508
2016-05-22 02:30:00,2087E-3,5C000400,-0724,0834,12199,031.9,045.5,0.248,749.2,01.17,0.508
2016-05-22 02:31:00,1949E-3,5C000400,-0724,0835,12210,031.9,045.6,0.247,749.2,01.17,0.508
2016-05-22 02:32:00,2027E-3,5C000400,-0724,0834,12075,032.0,045.6,0.248,749.2,01.17,0.508
2016-05-22 02:33:00,2136E-3,5C000400,-0724,0834,12120,032.0,045.6,0.248,749.2,01.17,0.508
2016-05-22 02:34:00,2094E-3,5C000400,-0724,0834,12129,032.1,045.6,0.247,749.2,01.17,0.508
2016-05-22 02:35:00,2136E-3,5C000400,-0724,0835,12236,032.1,045.6,0.248,749.2,01.17,0.508
2016-05-22 02:36:00,2096E-3,5C000400,-0724,0834,12107,032.2,045.6,0.247,749.2,01.17,0.508
2016-05-22 02:37:00,1996E-3,5C000400,-0724,0834,12069,032.2,045.6,0.248,749.2,01.17,0.508
2016-05-22 02:38:00,2124E-3,5C000400,-0724,0834,12246,032.2,045.6,0.247,749.2,01.17,0.508
2016-05-22 02:39:00,2160E-3,5C000400,-0724,0835,12178,032.2,045.6,0.247,749.2,01.17,0.508
2016-05-22 02:40:00,2276E-3,5C000400,-0724,0835,11929,032.2,045.6,0.247,749.2,01.17,0.508
2016-05-22 02:41:00,2029E-3,5C000400,-0724,0834,12040,032.3,045.6,0.247,749.2,01.17,0.508
2016-05-22 02:42:00,2086E-3,5C000400,-0724,0834,12145,032.3,045.6,0.247,749.1,01.17,0.508
2016-05-22 02:43:00,1954E-3,5C000400,-0724,0835,12049,032.3,045.6,0.247,749.1,01.17,0.508
2016-05-22 02:44:00,1973E-3,5C000400,-0724,0835,12183,032.3,045.6,0.247,749.1,01.17,0.508
2016-05-22 02:45:00,1998E-3,5C000400,-0724,0835,12132,032.4,045.6,0.246,749.1,01.17,0.508
2016-05-22 02:46:00,2003E-3,5C000400,-0724,0835,12156,032.4,045.6,0.247,749.1,01.17,0.508
2016-05-22 02:47:00,2103E-3,5C000400,-0724,0835,12029,032.5,045.6,0.247,749.1,01.17,0.508
2016-05-22 02:48:00,2060E-3,5C000400,-0724,0835,12046,032.5,045.6,0.247,749.1,01.17,0.508
2016-05-22 02:49:00,2027E-3,5C000400,-0724,0835,12300,032.5,045.6,0.246,749.1,01.17,0.508
2016-05-22 02:50:00,2023E-3,5C000400,-0724,0835,12283,032.4,045.6,0.246,749.1,01.17,0.508
2016-05-22 02:51:00,2135E-3,5C000400,-0724,0835,12157,032.4,045.6,0.247,749.1,01.17,0.508
2016-05-22 02:52:00,2170E-3,5C000400,-0724,0835,12094,032.3,045.6,0.246,749.1,01.17,0.508
2016-05-22 02:53:00,2101E-3,5C000400,-0724,0834,12257,032.2,045.6,0.246,749.1,01.17,0.508
2016-05-22 02:54:00,1968E-3,5C000400,-0724,0834,12196,032.0,045.6,0.246,749.1,01.17,0.508
2016-05-22 02:55:00,1957E-3,5C000400,-0724,0834,12175,032.0,045.6,0.246,749.1,01.17,0.508
2016-05-22 02:56:00,2036E-3,5C000400,-0724,0834,12114,031.9,045.5,0.246,749.1,01.17,0.508
2016-05-22 02:57:00,2188E-3,5C000400,-0724,0834,11927,031.8,045.5,0.247,749.1,01.17,0.508
2016-05-22 02:58:00,2020E-3,5C000400,-0724,0834,12144,031.7,045.5,0.246,749.1,01.17,0.508
2016-05-22 02:59:00,2005E-3,5C000400,-0724,0833,12116,031.5,045.5,0.247,749.1,01.17,0.508
2016-05-22 03:00:00,2055E-3,5C000400,-0724,0834,12171,031.4,045.6,0.247,749.1,01.17,0.508
2016-05-22 03:01:00,2080E-3,5C000400,-0724,0834,12120,031.3,045.6,0.247,749.1,01.17,0.508
2016-05-22 03:02:00,2038E-3,5C000400,-0724,0834,12080,031.2,045.5,0.248,749.1,01.17,0.508
2016-05-22 03:03:00,2045E-3,5C000400,-0724,0834,12078,031.1,045.5,0.248,749.0,01.17,0.508
2016-05-22 03:04:00,2059E-3,5C000400,-0724,0834,12209,031.0,045.5,0.248,749.0,01.17,0.508
2016-05-22 03:05:00,2091E-3,5C000400,-0724,0834,12162,030.9,045.5,0.248,749.0,01.17,0.508
2016-05-22 03:06:00,1997E-3,5C000400,-0724,0834,12129,030.8,045.5,0.249,749.0,01.17,0.508
2016-05-22 03:07:00,2114E-3,5C000400,-0724,0833,12065,030.6,045.5,0.249,749.0,01.17,0.508
2016-05-22 03:08:00,1901E-3,5C000400,-0724,0833,12036,030.6,045.5,0.250,749.0,01.17,0.508
2016-05-22 03:09:00,2120E-3,5C000400,-0724,0834,12105,030.5,045.5,0.250,748.9,01.17,0.508
2016-05-22 03:10:00,2160E-3,5C000400,-0724,0834,12231,030.4,045.5,0.250,748.9,01.17,0.508
2016-05-22 03:11:00,2138E-3,5C000400,-0724,0833,12236,030.3,045.5,0.249,748.9,01.17,0.508
2016-05-22 03:12:00,2111E-3,5C000400,-0724,0833,12179,030.3,045.5,0.250,749.0,01.17,0.508
2016-05-22 03:13:00,2029E-3,5C000400,-0724,0834,12279,030.2,045.5,0.250,749.0,01.17,0.508
2016-05-22 03:14:00,1984E-3,5C000400,-0724,0834,12245,030.2,045.5,0.250,749.0,01.17,0.508
2016-05-22 03:15:00,2137E-3,5C000400,-0724,0833,12068,030.2,045.5,0.250,749.0,01.17,0.508
2016-05-22 03:16:00,2009E-3,5C000400,-0724,0833,12119,030.2,045.5,0.250,749.0,01.17,0.508
2016-05-22 03:17:00,2095E-3,5C000400,-0724,0833,12118,030.1,045.5,0.250,749.0,01.17,0.508
2016-05-22 03:18:00,2026E-3,5C000400,-0724,0834,12200,030.1,045.5,0.251,748.9,01.17,0.508
2016-05-22 03:19:00,1938E-3,5C000400,-0724,0834,12190,030.2,045.5,0.251,749.0,01.17,0.508
2016-05-22 03:20:00,2032E-3,5C000400,-0724,0834,12286,030.1,045.5,0.251,748.9,01.17,0.508
2016-05-22 03:21:00,2054E-3,5C000400,-0724,0834,12146,030.2,045.5,0.251,749.0,01.17,0.508
2016-05-22 03:22:00,1991E-3,5C000400,-0724,0833,12198,030.2,045.5,0.251,749.0,01.17,0.508
2016-05-22 03:23:00,2047E-3,5C000400,-0724,0833,12075,030.1,045.5,0.250,749.0,01.17,0.508
2016-05-22 03:24:00,2066E-3,5C000400,-0724,0833,12240,030.1,045.5,0.251,749.0,01.17,0.508
2016-05-22 03:25:00,2031E-3,5C000400,-0724,0833,12061,030.1,045.5,0.251,748.9,01.17,0.508
2016-05-22 03:26:00,2024E-3,5C000400,-0724,0833,12155,030.1,045.5,0.250,749.0,01.17,0.508
2016-05-22 03:27:00,1940E-3,5C000400,-0724,0834,12215,030.1,045.5,0.251,748.9,01.17,0.508
2016-05-22 03:28:00,2036E-3,5C000400,-0724,0833,12161,030.1,045.5,0.251,749.0,01.17,0.508
2016-05-22 03:29:00,2052E-3,5C000400,-0724,0833,12163,030.0,045.5,0.251,749.0,01.17,0.508
2016-05-22 03:30:00,2141E-3,5C000400,-0724,0833,12211,030.1,045.5,0.251,749.0,01.17,0.508
2016-05-22 03:31:00,1934E-3,5C000400,-0724,0834,12173,030.0,045.5,0.251,749.0,01.17,0.508
2016-05-22 03:32:00,2088E-3,5C000400,-0724,0834,11979,030.0,045.5,0.251,749.0,01.17,0.508
2016-05-22 03:33:00,1949E-3,5C000400,-0724,0833,12039,030.1,045.5,0.251,748.9,01.17,0.508
2016-05-22 03:34:00,2178E-3,5C000400,-0724,0833,12121,030.0,045.5,0.251,748.9,01.17,0.508
2016-05-22 03:35:00,1970E-3,5C000400,-0724,0834,12276,030.0,045.5,0.251,748.9,01.17,0.508
2016-05-22 03:36:00,2206E-3,5C000400,-0724,0833,12195,030.0,045.5,0.251,748.9,01.17,0.508
2016-05-22 03:37:00,2039E-3,5C000400,-0724,0833,12178,030.0,045.5,0.251,748.9,01.17,0.508
2016-05-22 03:38:00,2169E-3,5C000400,-0724,0833,12035,029.9,045.5,0.251,748.9,01.17,0.508
2016-05-22 03:39:00,1968E-3,5C000400,-0724,0834,12165,029.9,045.5,0.251,748.9,01.17,0.508
2016-05-22 03:40:00,2136E-3,5C000400,-0724,0833,12131,030.0,045.5,0.251,748.9,01.17,0.508
2016-05-22 03:41:00,2095E-3,5C000400,-0724,0834,12031,030.0,045.5,0.251,748.9,01.17,0.508
2016-05-22 03:42:00,1922E-3,5C000400,-0724,0833,12217,029.9,045.5,0.251,748.9,01.17,0.508
2016-05-22 03:43:00,2187E-3,5C000400,-0724,0833,12180,029.9,045.5,0.251,748.9,01.17,0.508
2016-05-22 03:44:00,2039E-3,5C000400,-0724,0833,12108,029.9,045.5,0.251,748.9,01.17,0.508
2016-05-22 03:45:00,2002E-3,5C000400,-0724,0833,12104,029.9,045.5,0.251,748.9,01.17,0.508
2016-05-22 03:46:00,2037E-3,5C000400,-0724,0834,12052,029.9,045.5,0.252,748.9,01.17,0.508
2016-05-22 03:47:00,1999E-3,5C000400,-0724,0833,12115,029.9,045.5,0.251,748.9,01.17,0.508
2016-05-22 03:48:00,2089E-3,5C000400,-0724,0833,12184,029.9,045.5,0.251,748.9,01.17,0.508
2016-05-22 03:49:00,2074E-3,5C000400,-0724,0835,12296,029.9,045.5,0.251,748.9,01.17,0.508
2016-05-22 03:50:00,2172E-3,5C000400,-0724,0834,12252,029.9,045.5,0.252,748.9,01.17,0.508
2016-05-22 03:51:00,2059E-3,5C000400,-0724,0833,12202,029.9,045.5,0.251,748.9,01.17,0.508
2016-05-22 03:52:00,2106E-3,5C000400,-0724,0833,11989,029.9,045.5,0.251,748.9,01.17,0.508
2016-05-22 03:53:00,2083E-3,5C000400,-0724,0833,12131,029.9,045.5,0.251,748.8,01.17,0.508
2016-05-22 03:54:00,2050E-3,5C000400,-0724,0833,12004,029.9,045.5,0.252,748.8,01.17,0.508
2016-05-22 03:55:00,2044E-3,5C000400,-0724,0833,12299,029.9,045.5,0.251,748.9,01.17,0.508
2016-05-22 03:56:00,1942E-3,5C000400,-0724,0834,12155,029.8,045.5,0.251,748.8,01.17,0.508
2016-05-22 03:57:00,2028E-3,5C000400,-0724,0833,12205,029.9,045.5,0.251,748.8,01.17,0.508
2016-05-22 03:58:00,2141E-3,5C000400,-0724,0833,12123,029.9,045.5,0.252,748.8,01.17,0.508
2016-05-22 03:59:00,2069E-3,5C000400,-0724,0834,12148,029.8,045.5,0.251,748.8,01.17,0.508
2016-05-22 04:00:00,2056E-3,5C000400,-0724,0834,12214,029.9,045.5,0.251,748.8,01.17,0.508
2016-05-22 04:01:00,1969E-3,5C000400,-0724,0834,12260,029.9,045.5,0.252,748.8,01.17,0.508
2016-05-22 04:02:00,2059E-3,5C000400,-0724,0834,12092,029.9,045.5,0.252,748.8,01.17,0.508
2016-05-22 04:03:00,2020E-3,5C000400,-0724,0834,12126,029.9,045.5,0.251,748.9,01.17,0.508
2016-05-22 04:04:00,1950E-3,5C000400,-0724,0834,12276,029.9,045.5,0.251,748.8,01.17,0.508
2016-05-22 04:05:00,2142E-3,5C000400,-0724,0834,12294,029.9,045.5,0.252,748.8,01.17,0.508
2016-05-22 04:06:00,1995E-3,5C000400,-0724,0833,12069,029.9,045.5,0.252,748.8,01.17,0.508
2016-05-22 04:07:00,1926E-3,5C000400,-0724,0834,12240,029.8,045.5,0.251,748.8,01.17,0.508
2016-05-22 04:08:00,2044E-3,5C000400,-0724,0834,12239,029.9,045.5,0.251,748.8,01.17,0.508
2016-05-22 04:09:00,2112E-3,5C000400,-0724,0833,12194,029.8,045.5,0.251,748.8,01.17,0.508
2016-05-22 04:10:00,2035E-3,5C000400,-0724,0834,12169,029.8,045.5,0.252,748.8,01.17,0.508
2016-05-22 04:11:00,2017E-3,5C000400,-0724,0833,12092,029.8,045.5,0.252,748.7,01.17,0.508
2016-05-22 04:12:00,2045E-3,5C000400,-0724,0833,12115,029.8,045.5,0.252,748.8,01.17,0.508
2016-05-22 04:13:00,2132E-3,5C000400,-0724,0834,12194,029.8,045.5,0.252,748.8,01.17,0.508
2016-05-22 04:14:00,2027E-3,5C000400,-0724,0834,12074,029.8,045.5,0.252,748.8,01.17,0.508
2016-05-22 04:15:00,2114E-3,5C000400,-0724,0833,12045,029.8,045.5,0.251,748.8,01.17,0.508
2016-05-22 04:16:00,2117E-3,5C000400,-0724,0833,12171,029.8,045.5,0.251,748.8,01.17,0.508
2016-05-22 04:17:00,2016E-3,5C000400,-0724,0833,12111,029.8,045.5,0.252,748.8,01.17,0.508
2016-05-22 04:18:00,2160E-3,5C000400,-0724,0834,12203,029.8,045.5,0.252,748.8,01.17,0.508
2016-05-22 04:19:00,1937E-3,5C000400,-0724,0833,12276,029.8,045.5,0.251,748.8,01.17,0.508
2016-05-22 04:20:00,1973E-3,5C000400,-0724,0833,12198,029.8,045.5,0.251,748.8,01.17,0.508